Weather History for Scottsboro, AL

Change the Weather History Date:

Monday, February 25, 2013

  Actual Average (KHSV) Record (KHSV)
Temperature  
Mean Temperature 47 °F 48 °F  
Max Temperature 57 °F 59 °F 80 °F (1918)
Min Temperature 37 °F 38 °F 7 °F (1967)
Degree Days  
Heating Degree Days 18 17  
Month to date heating degree days 494  
Since 1 July heating degree days 2404  
Cooling Degree Days 0 0  
Month to date cooling degree days 0  
Year to date cooling degree days 0  
Moisture  
Dew Point 33 °F    
Average Humidity 58    
Maximum Humidity 93    
Minimum Humidity 44    
Precipitation  
Precipitation 0.21 in 0.18 in 1.80 in (1934)
Month to date precipitation 4.31  
Year to date precipitation 9.20  
Snow  
Snow 0.00 in - - ()
Month to date snowfall  
Since 1 July snowfall  
Snow Depth -    
Sea Level Pressure  
Sea Level Pressure 29.89 in    
Wind  
Wind Speed 6 mph (ENE)    
Max Wind Speed 16 mph    
Max Gust Speed 24 mph    
Visibility 4 miles    
Events Rain , Thunderstorm    
T = Trace of Precipitation, MM = Missing Value Source: NWS Daily Summary

Daily Weather History Graph

Daily Weather History Graph

Search for Another Location

Airport:

Trip Planner

Search our weather history database for the weather conditions in past years. The results will help you decide how hot, cold, wet, or windy it might be!

Date:

Astronomy

Feb. 25, 2013 Rise Set
Actual Time 6:17 AM CST 5:36 PM CST
Civil Twilight 5:52 AM CST 6:02 PM CST
Nautical Twilight 5:23 AM CST 6:31 PM CST
Astronomical Twilight 4:54 AM CST 7:00 PM CST
Moon 5:46 PM CST (2/25) 5:49 AM CST (2/25)
Length of Visible Light 12h 09m
Length of Day
11h 18m
Full, 100% of the Moon is Illuminated
Feb 25
Full
Feb 25
Full
Mar 4
Last Quarter
Mar 11
New
Mar 19
First Quarter

Hourly Weather History & Observations

Time (CST) Temp. Windchill Dew Point Humidity Pressure Visibility Wind Dir Wind Speed Gust Speed Precip Events Conditions
12:15 AM 37.4 °F 33.8 °F 32.0 °F 81% 29.99 in 5.0 mi NNE 4.6 mph - N/A   Haze
12:35 AM 39.2 °F - 32.0 °F 75% 30.00 in 5.0 mi Calm Calm - N/A   Haze
12:55 AM 37.4 °F 33.8 °F 32.0 °F 81% 29.99 in 5.0 mi NNE 4.6 mph - N/A   Haze
1:15 AM 37.4 °F 33.8 °F 32.0 °F 81% 29.98 in 5.0 mi NNE 4.6 mph - N/A   Haze
1:35 AM 41.0 °F 38.0 °F 28.4 °F 61% 29.98 in 5.0 mi NE 4.6 mph - N/A   Haze
1:55 AM 41.0 °F 38.0 °F 30.2 °F 65% 29.99 in 5.0 mi NNE 4.6 mph - N/A   Haze
2:15 AM 41.0 °F 37.1 °F 30.2 °F 65% 29.99 in 5.0 mi NNE 5.8 mph - N/A   Haze
2:35 AM 41.0 °F 35.8 °F 26.6 °F 57% 29.97 in 5.0 mi NE 8.1 mph - N/A   Haze
2:55 AM 42.8 °F 38.6 °F 26.6 °F 53% 29.97 in 6.0 mi NE 6.9 mph - N/A   Haze
3:15 AM 42.8 °F 38.0 °F 26.6 °F 53% 29.96 in 5.0 mi NE 8.1 mph - N/A   Haze
3:35 AM 42.8 °F 38.6 °F 26.6 °F 53% 29.96 in 5.0 mi NE 6.9 mph - N/A   Haze
3:55 AM 41.0 °F 37.1 °F 26.6 °F 57% 29.96 in 5.0 mi NNE 5.8 mph - N/A   Haze
4:15 AM 41.0 °F 37.1 °F 26.6 °F 57% 29.95 in 5.0 mi NE 5.8 mph - N/A   Haze
4:35 AM 41.0 °F 35.2 °F 26.6 °F 57% 29.95 in 5.0 mi NE 9.2 mph - N/A   Haze
4:55 AM 42.8 °F 37.5 °F 24.8 °F 49% 29.95 in 5.0 mi NE 9.2 mph - N/A   Haze
5:15 AM 42.8 °F 39.3 °F 24.8 °F 49% 29.97 in 5.0 mi NNE 5.8 mph - N/A   Haze
5:35 AM 41.0 °F 35.2 °F 26.6 °F 57% 29.97 in 6.0 mi NNE 9.2 mph - N/A   Haze
5:55 AM 42.8 °F 37.5 °F 24.8 °F 49% 29.97 in 5.0 mi NNE 9.2 mph - N/A   Haze
6:15 AM 42.8 °F 37.5 °F 24.8 °F 49% 29.97 in 5.0 mi NNE 9.2 mph - N/A   Haze
6:35 AM 41.0 °F 38.0 °F 26.6 °F 57% 29.99 in 5.0 mi ENE 4.6 mph - N/A   Haze
6:55 AM 41.0 °F 36.4 °F 24.8 °F 53% 29.99 in 4.0 mi NE 6.9 mph - N/A   Haze
7:15 AM 41.0 °F 36.4 °F 26.6 °F 57% 29.98 in 4.0 mi NE 6.9 mph - N/A   Haze
7:35 AM 41.0 °F 35.2 °F 26.6 °F 57% 29.98 in 3.0 mi NE 9.2 mph - N/A   Haze
7:55 AM 42.8 °F 38.0 °F 26.6 °F 53% 29.99 in 4.0 mi NE 8.1 mph - N/A   Haze
8:15 AM 42.8 °F 38.6 °F 26.6 °F 53% 30.00 in 4.0 mi NNE 6.9 mph - N/A   Haze
8:35 AM 44.6 °F 40.7 °F 26.6 °F 49% 29.99 in 3.0 mi NNE 6.9 mph - N/A   Haze
8:55 AM 44.6 °F 39.7 °F 28.4 °F 53% 29.98 in 3.0 mi NNE 9.2 mph - N/A   Haze
9:15 AM 44.6 °F 39.2 °F 26.6 °F 49% 29.97 in 4.0 mi NE 10.4 mph - N/A   Haze
9:35 AM 46.4 °F 42.4 °F 28.4 °F 50% 29.96 in 4.0 mi NNE 8.1 mph - N/A   Haze
9:55 AM 46.4 °F 42.4 °F 28.4 °F 50% 29.96 in 4.0 mi NE 8.1 mph - N/A   Haze
10:15 AM 46.4 °F 42.9 °F 28.4 °F 50% 29.96 in 3.0 mi NE 6.9 mph - N/A   Haze
10:35 AM 48.2 °F - 28.4 °F 46% 29.96 in 4.0 mi NE 6.9 mph - N/A   Haze
10:55 AM 51.8 °F - 30.2 °F 44% 29.95 in 5.0 mi NE 5.8 mph - N/A   Haze
11:15 AM 53.6 °F - 32.0 °F 44% 29.94 in 4.0 mi ENE 3.5 mph - N/A   Haze
11:35 AM 53.6 °F - 32.0 °F 44% 29.93 in 5.0 mi SE 8.1 mph - N/A   Haze
11:55 AM 53.6 °F - 32.0 °F 44% 29.93 in 5.0 mi East 10.4 mph 18.4 mph N/A   Haze
12:15 PM 53.6 °F - 32.0 °F 44% 29.92 in 5.0 mi SW 3.5 mph - N/A   Haze
12:35 PM 53.6 °F - 32.0 °F 44% 29.91 in 5.0 mi ESE 8.1 mph - N/A   Haze
12:55 PM 53.6 °F - 32.0 °F 44% 29.90 in 5.0 mi ESE 4.6 mph - N/A   Haze
1:15 PM 53.6 °F - 32.0 °F 44% 29.90 in 4.0 mi East 8.1 mph - N/A   Haze
1:35 PM 55.4 °F - 33.8 °F 44% 29.89 in 5.0 mi East 8.1 mph - N/A   Haze
1:55 PM 55.4 °F - 35.6 °F 47% 29.87 in 5.0 mi ESE 8.1 mph 17.3 mph N/A   Haze
2:15 PM 57.2 °F - 35.6 °F 44% 29.87 in 4.0 mi SE 5.8 mph - N/A   Haze
2:35 PM 57.2 °F - 35.6 °F 44% 29.85 in 5.0 mi East 9.2 mph - N/A   Haze
2:55 PM 57.2 °F - 35.6 °F 44% 29.84 in 5.0 mi ESE 6.9 mph - N/A   Haze
3:15 PM 55.4 °F - 37.4 °F 51% 29.83 in 5.0 mi ESE 4.6 mph - N/A   Haze
3:35 PM 55.4 °F - 37.4 °F 51% 29.82 in 5.0 mi Calm Calm - N/A   Haze
3:55 PM 55.4 °F - 37.4 °F 51% 29.82 in 5.0 mi SSE 5.8 mph - N/A   Haze
4:15 PM 55.4 °F - 37.4 °F 51% 29.81 in 5.0 mi SSE 8.1 mph - N/A   Haze
4:35 PM 55.4 °F - 37.4 °F 51% 29.82 in 5.0 mi SE 8.1 mph 17.3 mph N/A   Haze
4:55 PM 55.4 °F - 37.4 °F 51% 29.80 in 5.0 mi SE 5.8 mph - N/A   Haze
5:15 PM 53.6 °F - 37.4 °F 54% 29.79 in 4.0 mi SE 5.8 mph 18.4 mph N/A   Haze
5:35 PM 53.6 °F - 37.4 °F 54% 29.80 in 6.0 mi ESE 6.9 mph - N/A   Haze
5:55 PM 53.6 °F - 37.4 °F 54% 29.82 in 6.0 mi SSE 6.9 mph - N/A   Haze
6:15 PM 53.6 °F - 39.2 °F 58% 29.81 in 5.0 mi SE 9.2 mph 16.1 mph N/A   Haze
6:35 PM 53.6 °F - 39.2 °F 58% 29.80 in 5.0 mi SE 11.5 mph 20.7 mph N/A   Haze
6:55 PM 51.8 °F - 39.2 °F 62% 29.80 in 5.0 mi SSE 9.2 mph 17.3 mph N/A   Haze
7:15 PM 51.8 °F - 39.2 °F 62% 29.80 in 5.0 mi ESE 6.9 mph 17.3 mph N/A   Haze
7:35 PM 50.0 °F - 39.2 °F 66% 29.79 in 5.0 mi ESE 6.9 mph 20.7 mph N/A   Haze
7:55 PM 50.0 °F - 39.2 °F 66% 29.79 in 5.0 mi ESE 9.2 mph - N/A   Haze
8:15 PM 50.0 °F - 39.2 °F 66% 29.78 in 5.0 mi SE 5.8 mph 20.7 mph N/A   Haze
8:55 PM 50.0 °F - 39.2 °F 66% 29.75 in 5.0 mi East 6.9 mph - N/A   Haze
9:15 PM 50.0 °F - 39.2 °F 66% 29.75 in 5.0 mi ESE 11.5 mph 18.4 mph N/A   Haze
9:35 PM 50.0 °F - 41.0 °F 71% 29.74 in 5.0 mi ESE 13.8 mph 20.7 mph N/A   Haze
9:55 PM 48.2 °F - 41.0 °F 76% 29.75 in 4.0 mi SE 16.1 mph 23.0 mph N/A   Haze
10:15 PM 48.2 °F - 42.8 °F 82% 29.75 in 2.5 mi ESE 5.8 mph - N/A Rain Light Rain
10:35 PM 46.4 °F 44.3 °F 44.6 °F 93% 29.71 in 2.5 mi North 4.6 mph 17.3 mph 0.05 in Rain , Thunderstorm Light Rain
10:55 PM 46.4 °F 42.4 °F 42.8 °F 87% 29.71 in 2.5 mi East 8.1 mph 16.1 mph 0.08 in Rain Light Rain
11:15 PM 46.4 °F 45.2 °F 44.6 °F 93% 29.71 in 2.0 mi ESE 3.5 mph - 0.08 in Rain Light Rain
11:35 PM 46.4 °F 43.5 °F 44.6 °F 93% 29.70 in 2.5 mi East 5.8 mph - 0.12 in Rain Light Rain
11:55 PM 46.4 °F 42.4 °F 42.8 °F 87% 29.61 in 3.0 mi East 8.1 mph 24.2 mph 0.13 in Rain Light Rain